This demonstration page uses our WeatherBlox Daily Observations layout. Learn more.

Hourly Observations for June 14, 2020

Temp ( °F °C ) Dew Point ( °F °C ) Humidity (%) Winds ( mph kmh ) Pressure ( in mb ) Visibility ( mi km ) Precip ( " mm )
12:15 am 00:15 Clear 76 24.6 50 10.1 40 40 SSE 15 24 29.8 1009 10 16.0934 0 0
12:35 am 00:35 Clear 75 24 50 10 41 41 SSE 13 20 29.8 1009 10 16.0934 0 0
12:55 am 00:55 Clear 74 23.2 50 10.2 44 44 SSE 13 20 29.81 1010 10 16.0934 0 0
1:15 am 01:15 Clear 72 22.2 51 10.6 48 48 SSE 12 19 29.82 1010 10 16.0934 0 0
1:35 am 01:35 Clear 72 22.1 51 10.7 49 49 SSE 10 17 29.82 1010 10 16.0934 0 0
1:55 am 01:55 Clear 71 21.8 51 10.6 49 49 SSE 12 19 29.82 1010 10 16.0934 0 0
2:15 am 02:15 Clear 71 21.8 51 10.6 49 49 SSE 13 20 29.82 1010 10 16.0934 0 0
2:35 am 02:35 Clear 71 21.4 51 10.7 51 51 S 13 20 29.83 1010 10 16.0934 0 0
2:55 am 02:55 Clear 70 21.2 51 10.6 51 51 S 13 20 29.83 1010 10 16.0934 0 0
3:15 am 03:15 Clear 70 21.2 51 10.5 51 51 S 12 19 29.83 1010 10 16.0934 0 0
3:35 am 03:35 Clear 70 21 51 10.5 51 51 S 15 24 29.83 1010 10 16.0934 0 0
3:55 am 03:55 Clear 70 21.3 50 10.2 49 49 S 14 22 29.83 1010 10 16.0934 0 0
4:15 am 04:15 Clear 72 22.4 49 9.7 45 45 S 13 20 29.82 1010 10 16.0934 0 0
4:35 am 04:35 Clear 70 21.3 50 10.1 49 49 S 15 24 29.83 1010 10 16.0934 0 0
4:55 am 04:55 Clear 69 20.8 50 10.2 51 51 S 12 19 29.83 1010 10 16.0934 0 0
5:15 am 05:15 Clear 69 20.7 50 10.2 51 51 S 12 19 29.83 1010 10 16.0934 0 0
5:35 am 05:35 Clear 69 20.7 51 10.3 51 51 S 12 19 29.84 1011 10 16.0934 0 0
5:55 am 05:55 Clear 69 20.5 51 10.3 52 52 S 12 19 29.84 1011 10 16.0934 0 0
6:15 am 06:15 Sunny 68 20.1 51 10.4 54 54 S 12 19 29.85 1011 10 16.0934 0 0
6:35 am 06:35 Sunny 69 20.5 51 10.5 53 53 S 14 22 29.84 1011 10 16.0934 0 0
6:55 am 06:55 Sunny 69 20.7 51 10.5 52 52 S 14 22 29.85 1011 10 16.0934 0 0
7:15 am 07:15 Sunny 69 20.7 51 10.8 53 53 S 12 19 29.86 1011 10 16.0934 0 0
7:35 am 07:35 Sunny 69 20.8 52 11 54 54 S 13 20 29.87 1012 10 16.0934 0 0
7:55 am 07:55 Sunny 71 21.6 52 11.2 52 52 S 13 20 29.86 1011 10 16.0934 0 0
8:15 am 08:15 Sunny 73 22.8 53 11.5 49 49 S 15 24 29.85 1011 10 16.0934 0 0
8:35 am 08:35 Sunny 74 23.6 52 11 45 45 S 14 22 29.86 1011 10 16.0934 0 0
8:55 am 08:55 Sunny 76 24.2 51 10.7 43 43 S 16 26 29.84 1011 10 16.0934 0 0
9:15 am 09:15 Sunny 75 23.9 52 11.3 45 45 S 20 31 29.85 1011 10 16.0934 0 0
9:35 am 09:35 Sunny 78 25.5 52 11.3 41 41 S 18 30 29.83 1010 10 16.0934 0 0
9:55 am 09:55 Sunny 80 26.6 52 11.1 38 38 S 22 35 29.81 1010 10 16.0934 0 0
10:15 am 10:15 Sunny 82 27.5 51 10.8 35 35 SSW 20 31 29.81 1009 10 16.0934 0 0
10:35 am 10:35 Sunny 83 28.4 52 11.1 34 34 SSW 24 39 29.8 1009 10 16.0934 0 0
10:55 am 10:55 Sunny 84 28.8 52 11 33 33 S 21 33 29.8 1009 10 16.0934 0 0
11:15 am 11:15 Sunny 84 29.1 52 11.1 33 33 S 21 33 29.78 1009 10 16.0934 0 0
11:35 am 11:35 Sunny 86 30.2 53 11.6 32 32 S 23 37 29.78 1008 10 16.0934 0 0
11:55 am 11:55 Sunny 87 30.8 53 11.5 30 30 SSW 22 35 29.77 1008 10 16.0934 0 0
12:15 pm 12:15 Sunny 88 31.3 52 11.2 29 29 SSW 24 39 29.77 1008 10 16.0934 0 0
12:35 pm 12:35 Sunny 90 32.2 53 11.9 29 29 S 21 33 29.75 1007 10 16.0934 0 0
12:55 pm 12:55 Sunny 90 32 54 12.4 30 30 S 18 30 29.76 1008 10 16.0934 0 0
1:15 pm 13:15 Sunny 91 32.5 51 10.5 26 26 SSW 23 37 29.76 1008 10 16.0934 0 0
1:35 pm 13:35 Partly Cloudy 88 30.9 53 11.5 30 30 S 22 35 29.76 1008 10 16.0934 0 0
1:55 pm 13:55 Partly Cloudy 88 31.1 53 11.6 30 30 S 23 37 29.76 1008 10 16.0934 0 0
2:15 pm 14:15 Sunny 89 31.7 52 11.2 28 28 SSW 22 35 29.75 1008 10 16.0934 0 0
2:35 pm 14:35 Sunny 90 32.4 53 11.5 28 28 S 24 39 29.75 1007 10 16.0934 0 0
2:55 pm 14:55 Sunny 90 32.4 52 11.2 27 27 S 20 31 29.74 1007 10 16.0934 0 0
3:15 pm 15:15 Sunny 92 33.2 50 10 24 24 SSW 23 37 29.73 1007 10 16.0934 0 0
3:35 pm 15:35 Sunny 89 31.6 49 9.4 25 25 S 24 39 29.75 1007 10 16.0934 0 0
3:55 pm 15:55 Sunny 91 32.7 51 10.7 26 26 SSW 25 41 29.75 1007 10 16.0934 0 0
4:15 pm 16:15 Sunny 91 32.7 51 10.4 25 25 S 24 39 29.75 1007 10 16.0934 0 0
4:35 pm 16:35 Partly Cloudy 90 32.3 50 10.2 26 26 S 24 39 29.74 1007 10 16.0934 0 0
4:55 pm 16:55 Partly Cloudy 89 31.9 51 10.3 26 26 S 18 30 29.75 1008 10 16.0934 0 0
5:15 pm 17:15 Partly Cloudy 91 32.8 52 10.9 26 26 S 21 33 29.74 1007 10 16.0934 0 0
5:35 pm 17:35 Sunny 91 33 51 10.4 25 25 S 21 33 29.73 1007 10 16.0934 0 0
5:55 pm 17:55 Sunny 92 33.2 52 11.1 26 26 S 18 30 29.72 1007 10 16.0934 0 0
6:15 pm 18:15 Sunny 92 33.5 52 11.2 26 26 S 25 41 29.72 1006 10 16.0934 0 0
6:35 pm 18:35 Sunny 92 33.2 51 10.6 25 25 SSE 23 37 29.72 1007 10 16.0934 0 0
6:55 pm 18:55 Sunny 91 33 53 11.5 27 27 S 23 37 29.73 1007 10 16.0934 0 0
7:15 pm 19:15 Sunny 91 32.5 53 11.4 27 27 SSE 26 43 29.73 1007 10 16.0934 0 0
7:35 pm 19:35 Sunny 89 31.9 53 11.5 29 29 SSE 23 37 29.73 1007 10 16.0934 0 0
7:55 pm 19:55 Sunny 88 31.2 53 11.4 30 30 SSE 21 33 29.75 1007 10 16.0934 0 0
8:15 pm 20:15 Sunny 87 30.6 53 11.5 31 31 SSE 20 31 29.75 1008 10 16.0934 0 0
8:35 pm 20:35 Sunny 86 30 53 11.4 32 32 SSE 20 31 29.77 1008 10 16.0934 0 0
8:55 pm 20:55 Sunny 85 29.5 52 11.2 32 32 SSE 22 35 29.77 1008 10 16.0934 0 0
9:15 pm 21:15 Clear 84 28.8 53 11.6 34 34 SSE 18 30 29.78 1008 10 16.0934 0 0
9:35 pm 21:35 Clear 83 28.5 53 11.5 35 35 SSE 20 31 29.79 1009 10 16.0934 0 0
9:55 pm 21:55 Clear 83 28.2 52 11.2 35 35 SSE 17 28 29.79 1009 10 16.0934 0 0
10:15 pm 22:15 Clear 83 28.2 52 11 34 34 SSE 21 33 29.8 1009 10 16.0934 0 0
10:35 pm 22:35 Clear 83 28.1 51 10.5 33 33 SSE 20 31 29.81 1010 10 16.0934 0 0
10:55 pm 22:55 Clear 82 28 51 10.3 33 33 S 21 33 29.82 1010 10 16.0934 0 0
11:15 pm 23:15 Clear 82 27.7 51 10.4 34 34 SSE 22 35 29.83 1010 10 16.0934 0 0
11:35 pm 23:35 Clear 81 27.2 51 10.5 35 35 S 21 33 29.83 1010 10 16.0934 0 0
11:55 pm 23:55 Clear 80 26.7 51 10.5 36 36 S 23 37 29.83 1010 10 16.0934 0 0

Powered by AerisWeather